EW1296 Weather Reports


Display with metric or nautical units.
time (UTC)temp
F
wind
direction
speed
MPH
gust
MPH
rain 1hr
in
rain 24hr
in
rain mn
in
humidity
%
barometer
mb
20260906103017 68 45 2.0 4.0 0.00 0.00 0.00 86 1013.7
20260906102518 68 113 1.0 4.0 0.00 0.00 0.00 86 1013.5
20260906102037 68 68 2.0 5.0 0.00 0.00 0.00 86 1013.5
20260906101517 67 90 1.0 4.0 0.00 0.00 0.00 86 1013.3
20260906101018 68 23 2.0 5.0 0.00 0.00 0.00 86 1013.3
20260906100517 68 68 2.0 5.0 0.00 0.00 0.00 86 1013.3
20260906100018 68 68 2.0 5.0 0.00 0.00 0.00 86 1013.2
20260906095517 68 68 1.0 2.0 0.00 0.00 0.00 86 1013.1
20260906095017 68 68 1.0 2.0 0.00 0.00 0.00 86 1013.1
20260906094517 68 0.0 2.0 0.00 0.00 0.00 86 1013.1
20260906094017 68 90 1.0 4.0 0.00 0.00 0.00 86 1013.0
20260906093538 68 0.0 2.0 0.00 0.00 0.00 86 1013.0
20260906093017 68 0.0 2.0 0.00 0.00 0.00 86 1013.0
20260906092517 68 90 1.0 3.0 0.00 0.00 0.00 85 1012.8
20260906092037 68 90 1.0 3.0 0.00 0.00 0.00 85 1012.8
20260906091537 68 90 1.0 5.0 0.00 0.00 0.00 85 1012.7
20260906091017 68 68 1.0 3.0 0.00 0.00 0.00 85 1012.5
20260906090517 68 23 1.0 3.0 0.00 0.00 0.00 85 1012.5
20260906090017 68 0.0 2.0 0.00 0.00 0.00 84 1012.5
20260906085517 68 113 1.0 3.0 0.00 0.00 0.00 84 1012.5
20260906085017 68 113 1.0 3.0 0.00 0.00 0.00 84 1012.5
20260906084517 69 90 1.0 4.0 0.00 0.00 0.00 84 1012.5
20260906084037 69 68 1.0 3.0 0.00 0.00 0.00 83 1012.6
20260906083538 69 68 1.0 3.0 0.00 0.00 0.00 83 1012.5
20260906083018 69 135 2.0 6.0 0.00 0.00 0.00 82 1012.5
20260906082517 69 68 2.0 6.0 0.00 0.00 0.00 81 1012.3
20260906082017 69 68 2.0 5.0 0.00 0.00 0.00 81 1012.3
20260906081517 69 135 2.0 4.0 0.00 0.00 0.00 80 1012.3
20260906081017 69 68 2.0 5.0 0.00 0.00 0.00 80 1012.2
20260906080518 69 68 2.0 7.0 0.00 0.00 0.00 79 1012.3
20260906080017 69 68 2.0 5.0 0.00 0.00 0.00 80 1012.2
20260906075517 70 68 2.0 7.0 0.00 0.00 0.00 80 1012.2
20260906075017 70 90 3.0 8.0 0.00 0.00 0.00 80 1012.2
20260906074558 70 113 2.0 7.0 0.00 0.00 0.00 81 1012.1
20260906074017 70 45 1.0 5.0 0.00 0.00 0.00 81 1012.2
20260906073518 70 90 1.0 4.0 0.00 0.00 0.00 81 1012.1
20260906073017 70 90 1.0 5.0 0.00 0.00 0.00 80 1012.1
20260906072538 70 68 1.0 3.0 0.00 0.00 0.00 80 1012.2
20260906072017 70 68 2.0 5.0 0.00 0.00 0.00 79 1012.1
20260906071518 71 90 1.0 3.0 0.00 0.00 0.00 78 1012.1
20260906071017 71 90 1.0 3.0 0.00 0.00 0.00 77 1012.0
20260906070517 71 90 1.0 4.0 0.00 0.00 0.00 76 1012.0
20260906070017 71 113 1.0 5.0 0.00 0.00 0.00 75 1012.0
20260906065517 71 23 2.0 4.0 0.00 0.00 0.00 75 1011.9
20260906065017 71 23 2.0 4.0 0.00 0.00 0.00 74 1011.9
20260906064518 71 68 1.0 3.0 0.00 0.00 0.00 73 1012.0
20260906064017 71 23 1.0 3.0 0.00 0.00 0.00 72 1012.0
20260906063517 71 68 1.0 7.0 0.00 0.00 0.00 72 1012.0
20260906063017 72 68 1.0 4.0 0.00 0.00 0.00 72 1012.0
20260906062517 72 113 1.0 4.0 0.00 0.00 0.00 72 1012.1
20260906062017 72 45 2.0 4.0 0.00 0.00 0.00 71 1012.1
20260906061516 72 68 1.0 4.0 0.00 0.00 0.00 71 1012.2
20260906061017 72 68 2.0 3.0 0.00 0.00 0.00 71 1012.2
20260906060517 72 90 1.0 3.0 0.00 0.00 0.00 71 1012.2
20260906060057 72 68 1.0 4.0 0.00 0.00 0.00 72 1012.4
20260906055517 72 68 1.0 3.0 0.00 0.00 0.00 72 1012.4
20260906055017 72 0.0 1.0 0.00 0.00 0.00 72 1012.5
20260906054517 72 0.0 2.0 0.00 0.00 0.00 72 1012.4
20260906054017 72 0.0 3.0 0.00 0.00 0.00 72 1012.4
20260906053517 72 0.0 2.0 0.00 0.00 0.00 72 1012.5
20260906053017 72 68 1.0 2.0 0.00 0.00 0.00 72 1012.4
20260906052517 72 68 1.0 4.0 0.00 0.00 0.00 71 1012.4
20260906052016 72 68 1.0 2.0 0.00 0.00 0.00 71 1012.5
20260906051537 72 90 1.0 5.0 0.00 0.00 0.00 71 1012.5
20260906051017 72 45 1.0 4.0 0.00 0.00 0.00 71 1012.5
20260906050538 72 68 1.0 4.0 0.00 0.00 0.00 71 1012.4
20260906050017 72 45 1.0 3.0 0.00 0.00 0.00 71 1012.5
20260906045517 72 68 1.0 4.0 0.00 0.00 0.00 71 1012.6
20260906045016 72 45 2.0 5.0 0.00 0.00 0.00 71 1012.5
20260906044517 72 23 1.0 3.0 0.00 0.00 0.00 71 1012.6
20260906044017 72 23 1.0 5.0 0.00 0.00 0.00 71 1012.6
20260906043517 72 45 2.0 5.0 0.00 0.00 0.00 71 1012.5
20260906043016 73 45 2.0 5.0 0.00 0.00 0.00 71 1012.4
20260906042539 73 45 2.0 3.0 0.00 0.00 0.00 70 1012.4
20260906042018 73 90 2.0 4.0 0.00 0.00 0.00 70 1012.4
20260906041517 73 45 2.0 5.0 0.00 0.00 0.00 70 1012.4
20260906041017 73 45 3.0 7.0 0.00 0.00 0.00 69 1012.4
20260906040516 73 68 3.0 9.0 0.00 0.00 0.00 68 1012.5
20260906040018 73 23 2.0 6.0 0.00 0.00 0.00 68 1012.5
20260906035517 73 23 2.0 5.0 0.00 0.00 0.00 67 1012.5
20260906035018 73 45 1.0 4.0 0.00 0.00 0.00 67 1012.5
20260906034517 73 68 3.0 7.0 0.00 0.00 0.00 67 1012.5
20260906034037 73 45 2.0 6.0 0.00 0.00 0.00 66 1012.4
20260906033517 73 45 2.0 5.0 0.00 0.00 0.00 66 1012.4
20260906033017 74 45 3.0 7.0 0.00 0.00 0.00 65 1012.3
20260906032539 74 23 2.0 8.0 0.00 0.00 0.00 65 1012.3
20260906032017 74 23 2.0 4.0 0.00 0.00 0.00 65 1012.2
20260906031518 74 68 1.0 3.0 0.00 0.00 0.00 64 1012.2
20260906031018 74 90 2.0 5.0 0.00 0.00 0.00 64 1012.1
20260906030518 74 90 1.0 4.0 0.00 0.00 0.00 64 1012.1
20260906030037 74 45 2.0 6.0 0.00 0.00 0.00 63 1012.1
20260906025517 74 68 4.0 11.0 0.00 0.00 0.00 63 1012.1
20260906025017 75 23 2.0 8.0 0.00 0.00 0.00 63 1012.1
20260906024517 75 45 2.0 6.0 0.00 0.00 0.00 63 1012.1
20260906024017 75 0 2.0 5.0 0.00 0.00 0.00 64 1012.0
20260906023537 75 45 2.0 8.0 0.00 0.00 0.00 64 1012.0
20260906023017 75 338 2.0 5.0 0.00 0.00 0.00 64 1012.0
20260906022517 75 45 1.0 2.0 0.00 0.00 0.00 62 1012.0
20260906022017 75 45 1.0 3.0 0.00 0.00 0.00 62 1011.9
20260906021518 75 45 1.0 4.0 0.00 0.00 0.00 61 1012.0
20260906021017 76 90 2.0 4.0 0.00 0.00 0.00 61 1012.0
20260906020517 76 45 2.0 4.0 0.00 0.00 0.00 61 1012.0
20260906020017 76 23 2.0 5.0 0.00 0.00 0.00 61 1011.9
20260906015517 76 0 2.0 4.0 0.00 0.00 0.00 60 1011.8
20260906015037 76 45 2.0 5.0 0.00 0.00 0.00 60 1011.7
20260906014517 76 45 3.0 9.0 0.00 0.00 0.00 59 1011.7
20260906014017 76 23 2.0 6.0 0.00 0.00 0.00 59 1011.7
20260906013519 76 45 2.0 5.0 0.00 0.00 0.00 59 1011.7
20260906013037 76 338 2.0 5.0 0.00 0.00 0.00 57 1011.6
20260906012517 76 45 2.0 9.0 0.00 0.00 0.00 56 1011.6
20260906012017 76 45 2.0 5.0 0.00 0.00 0.00 57 1011.6
20260906011518 76 23 2.0 8.0 0.00 0.00 0.00 57 1011.6
20260906011018 76 338 3.0 11.0 0.00 0.00 0.00 58 1011.5
20260906010517 77 45 3.0 8.0 0.00 0.00 0.00 59 1011.5
20260906010017 77 338 3.0 8.0 0.00 0.00 0.00 60 1011.5
20260906005516 77 338 4.0 10.0 0.00 0.00 0.00 60 1011.4
20260906005018 77 338 3.0 8.0 0.00 0.00 0.00 59 1011.4
20260906004516 77 0 2.0 8.0 0.00 0.00 0.00 58 1011.3
20260906004016 77 0 2.0 4.0 0.00 0.00 0.00 58 1011.3
20260906003517 77 338 2.0 5.0 0.00 0.00 0.00 58 1011.2
20260906003017 77 45 2.0 6.0 0.00 0.00 0.00 58 1011.1
20260906002518 77 0 1.0 4.0 0.00 0.00 0.00 58 1011.1
20260906002018 77 45 2.0 8.0 0.00 0.00 0.00 57 1011.0
20260906001537 77 338 2.0 7.0 0.00 0.00 0.00 57 1010.8
20260906001017 77 0 3.0 8.0 0.00 0.00 0.00 58 1010.7
20260906000517 77 338 2.0 5.0 0.00 0.00 0.00 57 1010.7
20260906000017 78 23 2.0 5.0 0.00 0.00 0.00 57 1010.7
20260905235537 78 315 3.0 9.0 0.00 0.00 0.00 58 1010.6
20260905235016 78 315 3.0 8.0 0.00 0.00 0.00 58 1010.6
20260905234518 78 338 2.0 5.0 0.00 0.00 0.00 57 1010.5
20260905234016 78 338 2.0 7.0 0.00 0.00 0.00 56 1010.5
20260905233517 78 338 3.0 9.0 0.00 0.00 0.00 55 1010.5
20260905233038 78 338 3.0 7.0 0.00 0.00 0.00 55 1010.5
20260905232537 79 0 3.0 8.0 0.00 0.00 0.00 54 1010.5
20260905232016 79 0 3.0 8.0 0.00 0.00 0.00 53 1010.5
20260905231537 79 338 2.0 5.0 0.00 0.00 0.00 53 1010.5
20260905231017 79 0 3.0 9.0 0.00 0.00 0.00 52 1010.6
20260905230517 79 338 2.0 6.0 0.00 0.00 0.00 51 1010.6
20260905230017 79 45 3.0 8.0 0.00 0.00 0.00 51 1010.5
20260905225517 80 315 3.0 9.0 0.00 0.00 0.00 51 1010.4
20260905225016 80 0 3.0 10.0 0.00 0.00 0.00 50 1010.4
20260905224518 80 338 3.0 10.0 0.00 0.00 0.00 49 1010.3
20260905224017 80 338 4.0 10.0 0.00 0.00 0.00 50 1010.3
20260905223516 80 338 3.0 9.0 0.00 0.00 0.00 50 1010.3
20260905223037 81 0 3.0 8.0 0.00 0.00 0.00 49 1010.4
20260905222517 81 23 3.0 7.0 0.00 0.00 0.00 50 1010.4
20260905222016 81 315 2.0 6.0 0.00 0.00 0.00 50 1010.3
20260905221517 81 0 3.0 10.0 0.00 0.00 0.00 49 1010.2
20260905221017 81 0 2.0 7.0 0.00 0.00 0.00 49 1010.0
20260905220516 81 45 2.0 6.0 0.00 0.00 0.00 49 1010.0
20260905220016 81 338 2.0 8.0 0.00 0.00 0.00 49 1010.0
20260905215559 81 23 2.0 9.0 0.00 0.00 0.00 48 1010.0
20260905215016 81 23 3.0 6.0 0.00 0.00 0.00 48 1010.0
20260905214518 81 0 2.0 5.0 0.00 0.00 0.00 49 1010.0
20260905214016 81 0 4.0 11.0 0.00 0.00 0.00 48 1010.0
20260905213517 82 23 3.0 9.0 0.00 0.00 0.00 48 1010.0
20260905213017 82 338 2.0 5.0 0.00 0.00 0.00 47 1010.0
20260905212517 82 0 4.0 10.0 0.00 0.00 0.00 47 1010.0
20260905212017 82 338 2.0 6.0 0.00 0.00 0.00 47 1010.0
20260905211516 82 0 2.0 8.0 0.00 0.00 0.00 47 1009.9
20260905211016 82 23 2.0 9.0 0.00 0.00 0.00 47 1010.0
20260905210516 82 338 3.0 8.0 0.00 0.00 0.00 47 1010.0
20260905210017 82 338 4.0 8.0 0.00 0.00 0.00 47 1010.0
20260905205518 82 45 3.0 11.0 0.00 0.00 0.00 47 1010.0
20260905205016 82 338 3.0 6.0 0.00 0.00 0.00 48 1009.9
20260905204516 83 0 3.0 9.0 0.00 0.00 0.00 48 1009.9
20260905204036 82 0 2.0 5.0 0.00 0.00 0.00 47 1009.9
20260905203516 82 0 3.0 6.0 0.00 0.00 0.00 48 1009.9
20260905203017 82 293 2.0 6.0 0.00 0.00 0.00 48 1009.8
20260905202536 82 338 1.0 5.0 0.00 0.00 0.00 48 1009.8
20260905202016 82 23 2.0 6.0 0.00 0.00 0.00 49 1009.8
20260905201516 82 338 2.0 5.0 0.00 0.00 0.00 49 1009.9
20260905201016 81 23 2.0 5.0 0.00 0.00 0.00 48 1009.8
20260905200536 81 293 2.0 8.0 0.00 0.00 0.00 48 1009.9
20260905200016 82 23 3.0 10.0 0.00 0.00 0.00 48 1009.8
20260905195537 82 338 3.0 6.0 0.00 0.00 0.00 47 1009.8
20260905195016 82 45 3.0 8.0 0.00 0.00 0.00 47 1009.9
20260905194516 82 0 3.0 7.0 0.00 0.00 0.00 48 1009.9
20260905194038 82 338 4.0 9.0 0.00 0.00 0.00 47 1010.0
20260905193516 83 315 6.0 12.0 0.00 0.00 0.00 45 1010.0
20260905193018 84 315 5.0 11.0 0.00 0.00 0.00 45 1009.9
20260905192538 84 315 5.0 12.0 0.00 0.00 0.00 45 1009.9
20260905192016 84 45 3.0 7.0 0.00 0.00 0.00 45 1010.0
20260905191516 84 338 3.0 10.0 0.00 0.00 0.00 45 1010.0
20260905191036 84 45 3.0 9.0 0.00 0.00 0.00 45 1010.0
20260905190516 83 315 2.0 4.0 0.00 0.00 0.00 46 1010.0
20260905190016 82 23 4.0 8.0 0.00 0.00 0.00 47 1010.1
20260905185517 82 0 3.0 7.0 0.00 0.00 0.00 48 1010.1
20260905185036 82 338 3.0 9.0 0.00 0.00 0.00 47 1010.2
20260905184516 82 0 3.0 9.0 0.00 0.00 0.00 47 1010.2
20260905184037 82 315 3.0 9.0 0.00 0.00 0.00 47 1010.3
20260905183536 83 270 3.0 9.0 0.00 0.00 0.00 47 1010.2
20260905183017 83 45 2.0 8.0 0.00 0.00 0.00 48 1010.2
20260905182516 82 293 3.0 9.0 0.00 0.00 0.00 49 1010.3
20260905182018 82 0 3.0 9.0 0.00 0.00 0.00 49 1010.4
20260905181537 82 0 4.0 10.0 0.00 0.00 0.00 49 1010.4
20260905181016 82 338 4.0 8.0 0.00 0.00 0.00 49 1010.4
20260905180516 82 315 4.0 12.0 0.00 0.00 0.00 48 1010.4
20260905180037 82 315 2.0 6.0 0.00 0.00 0.00 48 1010.4
20260905175516 82 315 3.0 10.0 0.00 0.00 0.00 48 1010.4
20260905175016 83 293 5.0 10.0 0.00 0.00 0.00 47 1010.4
20260905174516 82 270 4.0 11.0 0.00 0.00 0.00 48 1010.4
20260905174016 82 338 3.0 8.0 0.00 0.00 0.00 49 1010.5
20260905173517 82 315 6.0 11.0 0.00 0.00 0.00 48 1010.5
20260905173017 82 45 4.0 10.0 0.00 0.00 0.00 49 1010.5
20260905172516 82 0 4.0 11.0 0.00 0.00 0.00 47 1010.6
20260905172036 82 45 4.0 10.0 0.00 0.00 0.00 47 1010.6
20260905171518 82 0 3.0 8.0 0.00 0.00 0.00 47 1010.7
20260905171017 82 0 3.0 9.0 0.00 0.00 0.00 48 1010.7
20260905170516 82 45 4.0 11.0 0.00 0.00 0.00 48 1010.7
20260905170016 82 45 3.0 9.0 0.00 0.00 0.00 50 1010.7
20260905165516 81 0 4.0 10.0 0.00 0.00 0.00 50 1010.6
20260905165037 81 0 4.0 10.0 0.00 0.00 0.00 50 1010.7
20260905164516 81 315 4.0 10.0 0.00 0.00 0.00 51 1010.8
20260905164016 81 0 3.0 7.0 0.00 0.00 0.00 52 1010.9
20260905163516 81 45 5.0 13.0 0.00 0.00 0.00 52 1010.8
20260905163016 81 0 4.0 10.0 0.00 0.00 0.00 51 1010.9
20260905162516 81 0 4.0 8.0 0.00 0.00 0.00 51 1010.8
20260905162016 81 0 4.0 9.0 0.00 0.00 0.00 52 1010.8
20260905161516 81 0 4.0 9.0 0.00 0.00 0.00 53 1010.7
20260905161017 81 315 4.0 9.0 0.00 0.00 0.00 53 1010.8
20260905160516 81 293 3.0 12.0 0.00 0.00 0.00 50 1010.7
20260905160016 81 338 3.0 7.0 0.00 0.00 0.00 51 1010.7
20260905155518 81 293 3.0 9.0 0.00 0.00 0.00 51 1010.7
20260905155017 81 315 3.0 9.0 0.00 0.00 0.00 51 1010.6
20260905154516 81 0 4.0 9.0 0.00 0.00 0.00 51 1010.6
20260905154018 81 338 4.0 8.0 0.00 0.00 0.00 51 1010.6
20260905153517 80 45 4.0 10.0 0.00 0.00 0.00 53 1010.6
20260905153017 80 338 3.0 8.0 0.00 0.00 0.00 53 1010.7
20260905152516 80 0 3.0 9.0 0.00 0.00 0.00 52 1010.7
20260905152017 81 315 3.0 9.0 0.00 0.00 0.00 53 1010.7
20260905151516 80 315 3.0 9.0 0.00 0.00 0.00 53 1010.8
20260905151016 80 45 3.0 5.0 0.00 0.00 0.00 54 1010.7
20260905150516 79 0 4.0 11.0 0.00 0.00 0.00 55 1010.7
20260905150036 79 338 4.0 11.0 0.00 0.00 0.00 55 1010.7
20260905145516 79 23 4.0 10.0 0.00 0.00 0.00 54 1010.8
20260905145016 79 0 4.0 12.0 0.00 0.00 0.00 54 1010.7
20260905144516 79 338 4.0 10.0 0.00 0.00 0.00 55 1010.7
20260905144016 79 338 3.0 11.0 0.00 0.00 0.00 57 1010.6
20260905143516 79 315 3.0 7.0 0.00 0.00 0.00 58 1010.6
20260905143017 78 45 3.0 8.0 0.00 0.00 0.00 58 1010.6
20260905142516 78 270 2.0 6.0 0.00 0.00 0.00 59 1010.6
20260905142016 77 338 2.0 5.0 0.00 0.00 0.00 61 1010.5
20260905141517 77 23 3.0 7.0 0.00 0.00 0.00 62 1010.7
20260905141037 77 338 3.0 9.0 0.00 0.00 0.00 62 1010.6
20260905140517 77 338 3.0 6.0 0.00 0.00 0.00 63 1010.5
20260905140016 76 338 3.0 7.0 0.00 0.00 0.00 63 1010.5
20260905135516 76 315 4.0 9.0 0.00 0.00 0.00 63 1010.6
20260905135017 76 315 4.0 10.0 0.00 0.00 0.00 64 1010.5
20260905134517 76 338 3.0 10.0 0.00 0.00 0.00 63 1010.5
20260905134016 76 293 3.0 8.0 0.00 0.00 0.00 64 1010.5
20260905133516 76 315 4.0 9.0 0.00 0.00 0.00 64 1010.5
20260905133016 76 315 4.0 9.0 0.00 0.00 0.00 63 1010.5
20260905132537 76 293 4.0 8.0 0.00 0.00 0.00 64 1010.6
20260905132056 76 315 3.0 8.0 0.00 0.00 0.00 64 1010.6
20260905131538 76 0 4.0 8.0 0.00 0.00 0.00 64 1010.7
20260905131016 75 315 3.0 7.0 0.00 0.00 0.00 64 1010.7
20260905130515 75 315 3.0 7.0 0.00 0.00 0.00 64 1010.8
20260905130036 75 338 2.0 6.0 0.00 0.00 0.00 65 1010.9
20260905125516 75 0 2.0 4.0 0.00 0.00 0.00 65 1010.9
20260905125017 75 293 4.0 9.0 0.00 0.00 0.00 65 1011.0
20260905124517 75 315 4.0 8.0 0.00 0.00 0.00 65 1011.0
20260905124017 75 0 2.0 8.0 0.00 0.00 0.00 66 1011.0
20260905123536 74 315 2.0 8.0 0.00 0.00 0.00 67 1011.0
20260905123016 74 315 3.0 8.0 0.00 0.00 0.00 67 1011.2
20260905122536 74 315 4.0 9.0 0.00 0.00 0.00 67 1011.2
20260905122037 74 315 4.0 10.0 0.00 0.00 0.00 67 1011.3
20260905121515 74 315 3.0 8.0 0.00 0.00 0.00 67 1011.2
20260905121016 73 315 3.0 6.0 0.00 0.00 0.00 68 1011.0
20260905120515 73 315 4.0 8.0 0.00 0.00 0.00 68 1011.2
20260905120036 73 315 3.0 8.0 0.00 0.00 0.00 68 1011.1
20260905115516 73 315 2.0 6.0 0.00 0.00 0.00 68 1011.1
20260905115017 73 315 3.0 6.0 0.00 0.00 0.00 68 1011.1
20260905114517 73 338 2.0 5.0 0.00 0.00 0.00 68 1011.0
20260905114017 73 338 2.0 5.0 0.00 0.00 0.00 68 1010.9
20260905113516 73 315 3.0 8.0 0.00 0.00 0.00 68 1010.9
20260905113016 73 315 3.0 8.0 0.00 0.00 0.00 68 1010.9
20260905112515 72 338 2.0 7.0 0.00 0.00 0.00 68 1010.8
20260905112015 72 338 1.0 4.0 0.00 0.00 0.00 68 1010.7
20260905111516 72 23 1.0 5.0 0.00 0.00 0.00 68 1010.7
20260905111015 72 0 3.0 8.0 0.00 0.00 0.00 68 1010.7
20260905110517 72 338 2.0 6.0 0.00 0.00 0.00 68 1010.5
20260905110036 72 293 1.0 4.0 0.00 0.00 0.00 68 1010.4
20260905105515 72 0 2.0 5.0 0.00 0.00 0.00 67 1010.4
20260905105015 72 0 2.0 4.0 0.00 0.00 0.00 67 1010.3
20260905104517 72 315 3.0 6.0 0.00 0.00 0.00 67 1010.2
20260905104057 72 315 2.0 4.0 0.00 0.00 0.00 67 1010.3
20260905103517 72 338 1.0 3.0 0.00 0.00 0.00 66 1010.3